TimeCDT,TemperatureF,Dew PointF,Humidity,Sea Level PressureIn,VisibilityMPH,Wind Direction,Wind SpeedMPH,Gust SpeedMPH,PrecipitationIn,Events,Conditions,WindDirDegrees,DateUTC
12:07 AM,59.0,55.4,88,29.76,10.0,WNW,13.8,20.7,N/A,,Overcast,300,2013-04-12 05:07:00
12:22 AM,57.2,55.4,94,29.76,10.0,WNW,10.4,-,N/A,,Overcast,290,2013-04-12 05:22:00
12:48 AM,57.2,55.4,94,29.78,10.0,West,12.7,18.4,N/A,,Overcast,270,2013-04-12 05:48:00
12:53 AM,57.0,54.0,89,29.77,10.0,West,12.7,18.4,N/A,,Overcast,270,2013-04-12 05:53:00
1:46 AM,55.4,53.6,94,29.81,10.0,WNW,11.5,-,N/A,,Overcast,290,2013-04-12 06:46:00
1:53 AM,55.0,53.1,93,29.79,10.0,WNW,12.7,-,N/A,,Overcast,290,2013-04-12 06:53:00
2:53 AM,53.1,51.1,93,29.81,10.0,WNW,10.4,-,N/A,,Overcast,300,2013-04-12 07:53:00
3:28 AM,51.8,50.0,94,29.83,10.0,NW,10.4,-,N/A,,Overcast,310,2013-04-12 08:28:00
3:53 AM,51.1,48.9,92,29.83,10.0,WNW,12.7,-,N/A,,Overcast,290,2013-04-12 08:53:00
3:57 AM,51.8,48.2,88,29.85,10.0,West,12.7,-,N/A,,Overcast,270,2013-04-12 08:57:00
4:21 AM,50.0,46.4,87,29.86,10.0,WNW,10.4,-,N/A,,Overcast,290,2013-04-12 09:21:00
4:33 AM,50.0,46.4,87,29.86,10.0,NW,13.8,20.7,N/A,,Mostly Cloudy,310,2013-04-12 09:33:00
4:42 AM,48.2,44.6,87,29.86,10.0,NW,16.1,21.9,N/A,,Scattered Clouds,310,2013-04-12 09:42:00
4:53 AM,48.9,45.0,86,29.86,10.0,NW,11.5,-,N/A,,Partly Cloudy,310,2013-04-12 09:53:00
5:44 AM,46.4,44.6,93,29.89,10.0,NW,10.4,-,N/A,,Partly Cloudy,310,2013-04-12 10:44:00
5:53 AM,46.0,44.1,93,29.89,10.0,WNW,6.9,-,N/A,,Scattered Clouds,300,2013-04-12 10:53:00
6:14 AM,46.4,44.6,93,29.90,10.0,NW,6.9,-,N/A,,Mostly Cloudy,310,2013-04-12 11:14:00
6:34 AM,46.4,42.8,87,29.91,10.0,NW,8.1,-,N/A,,Scattered Clouds,310,2013-04-12 11:34:00
6:53 AM,46.0,43.0,89,29.92,10.0,NW,8.1,-,N/A,,Partly Cloudy,310,2013-04-12 11:53:00
7:53 AM,46.9,44.1,90,29.94,10.0,NW,8.1,-,N/A,,Partly Cloudy,320,2013-04-12 12:53:00
8:33 AM,48.2,42.8,82,29.95,10.0,North,10.4,-,N/A,,Mostly Cloudy,350,2013-04-12 13:33:00
8:53 AM,48.9,42.1,77,29.95,10.0,NNW,10.4,-,N/A,,Mostly Cloudy,330,2013-04-12 13:53:00
9:02 AM,50.0,42.8,76,29.96,10.0,NNW,9.2,-,N/A,,Scattered Clouds,330,2013-04-12 14:02:00
9:53 AM,53.1,44.1,71,29.97,10.0,WNW,9.2,-,N/A,,Scattered Clouds,300,2013-04-12 14:53:00
10:53 AM,57.0,43.0,59,29.98,10.0,North,6.9,-,N/A,,Partly Cloudy,350,2013-04-12 15:53:00
11:53 AM,59.0,41.0,51,29.97,10.0,NW,8.1,16.1,N/A,,Clear,320,2013-04-12 16:53:00
12:53 PM,61.0,42.1,50,29.96,10.0,WSW,8.1,16.1,N/A,,Clear,250,2013-04-12 17:53:00
1:53 PM,63.0,39.9,43,29.95,10.0,WSW,5.8,-,N/A,,Clear,250,2013-04-12 18:53:00
2:53 PM,64.9,39.0,39,29.93,10.0,WNW,4.6,-,N/A,,Clear,290,2013-04-12 19:53:00
3:53 PM,68.0,39.0,35,29.92,10.0,North,10.4,18.4,N/A,,Clear,350,2013-04-12 20:53:00
4:53 PM,66.9,37.9,34,29.92,10.0,West,11.5,-,N/A,,Clear,280,2013-04-12 21:53:00
5:53 PM,66.9,37.9,34,29.92,10.0,WNW,11.5,-,N/A,,Clear,300,2013-04-12 22:53:00
6:53 PM,64.9,37.9,37,29.93,10.0,WNW,6.9,-,N/A,,Clear,300,2013-04-12 23:53:00
7:53 PM,61.0,42.1,50,29.95,10.0,WNW,3.5,-,N/A,,Clear,290,2013-04-13 00:53:00
8:53 PM,57.0,43.0,59,29.97,10.0,Calm,Calm,-,N/A,,Clear,0,2013-04-13 01:53:00
9:53 PM,54.0,45.0,72,29.99,10.0,Calm,Calm,-,N/A,,Clear,0,2013-04-13 02:53:00
10:53 PM,52.0,46.0,80,30.01,10.0,Calm,Calm,-,N/A,,Clear,0,2013-04-13 03:53:00
11:53 PM,51.1,45.0,80,30.01,10.0,Calm,Calm,-,N/A,,Clear,0,2013-04-13 04:53:00